Mildenhall RAF, United Kingdom

8:53 AM BST on March 28, 2017 (GMT +0100)
Mildenhall Air Base

Weather History for EGUN - January, 2013

Change the Weather History Date:

Wednesday, January 16, 2013

  Actual Average Record
Temperature  
Mean Temperature 24 °F -  
Max Temperature 28 °F - - ()
Min Temperature 19 °F - - ()
Degree Days  
Heating Degree Days 42    
Moisture  
Dew Point 24 °F    
Average Humidity 99    
Maximum Humidity 100    
Minimum Humidity 93    
Precipitation  
Precipitation 0.00 in - - ()
Sea Level Pressure  
Sea Level Pressure 29.91 in    
Wind  
Wind Speed 3 mph ()    
Max Wind Speed 7 mph    
Max Gust Speed -    
Visibility 0.4 miles    
Events Fog    
T = Trace of Precipitation, MM = Missing Value Source: Averaged Metar Reports

Daily Weather History Graph

Daily Weather History Graph

Search for Another Location

Airport or City:

Trip Planner

Search our weather history database for the weather conditions in past years. The results will help you decide how hot, cold, wet, or windy it might be!

Date:

Astronomy

Jan. 16, 2013 Rise Set
Actual Time 7:59 AM GMT 4:16 PM GMT
Civil Twilight 7:20 AM GMT 4:55 PM GMT
Nautical Twilight 6:37 AM GMT 5:38 PM GMT
Astronomical Twilight 5:57 AM GMT 6:19 PM GMT
Moon 9:41 AM GMT (1/16) 10:44 PM GMT (1/16)
Length of Visible Light 9h 35m
Length of Day
8h 16m
Waxing Crescent, 26% of the Moon is Illuminated
Jan 16
Waxing Crescent
Jan 18
First Quarter
Jan 27
Full
Feb 3
Last Quarter
Feb 10
New

Hourly Weather History & Observations

Time (GMT) Temp. Windchill Dew Point Humidity Pressure Visibility Wind Dir Wind Speed Gust Speed Precip Events Conditions
12:02 AM 28.4 °F - 26.6 °F 93% 29.87 in 2.5 mi East 2.3 mph - N/A   Overcast
12:07 AM 28.4 °F - 26.6 °F 93% 29.87 in - ESE 2.3 mph - N/A   Overcast
12:11 AM 28.4 °F - 26.6 °F 93% 29.87 in 1.7 mi East 2.3 mph - N/A   Overcast
12:13 AM 28.4 °F 24.6 °F 26.6 °F 93% 29.87 in 1.5 mi East 3.5 mph - N/A   Overcast
12:16 AM 28.4 °F 24.6 °F 28.4 °F 100% 29.87 in 1.2 mi ESE 3.5 mph - N/A   Overcast
12:23 AM 28.4 °F 24.6 °F 28.4 °F 100% 29.87 in 1.5 mi SE 3.5 mph - N/A   Overcast
12:24 AM 28.4 °F 24.6 °F 28.4 °F 100% 29.87 in 1.2 mi SE 3.5 mph - N/A   Overcast
12:25 AM 28.4 °F 24.6 °F 28.4 °F 100% 29.87 in 1.5 mi SE 3.5 mph - N/A   Overcast
12:28 AM 28.4 °F 23.3 °F 28.4 °F 100% 29.87 in 1.2 mi SE 4.6 mph - N/A   Overcast
12:34 AM 28.4 °F 23.3 °F 28.4 °F 100% 29.87 in 1.5 mi SE 4.6 mph - N/A   Overcast
12:41 AM 28.4 °F 23.3 °F 28.4 °F 100% 29.87 in 1.7 mi SSE 4.6 mph - N/A   Overcast
12:44 AM 28.4 °F 23.3 °F 28.4 °F 100% 29.87 in 1.5 mi SE 4.6 mph - N/A   Overcast
12:56 AM 28.4 °F 21.2 °F 28.4 °F 100% 29.87 in 1.2 mi SSE 6.9 mph - N/A   Overcast
12:58 AM 28.2 °F 22.0 °F 27.9 °F 99% 29.88 in 1.2 mi SE 5.8 mph - N/A   Overcast
1:00 AM 28.4 °F 22.2 °F 28.4 °F 100% 29.87 in 1.0 mi ESE 5.8 mph - N/A   Mist
1:03 AM 28.4 °F 22.2 °F 28.4 °F 100% 29.87 in 0.7 mi ESE 5.8 mph - N/A   Mist
1:09 AM 28.4 °F 23.3 °F 28.4 °F 100% 29.87 in 0.5 mi SE 4.6 mph - N/A Fog Light Freezing Fog
1:13 AM 28.4 °F 23.3 °F 28.4 °F 100% 29.87 in 0.7 mi East 4.6 mph - N/A Fog Light Freezing Fog
1:18 AM 28.4 °F 24.6 °F 28.4 °F 100% 29.87 in 0.7 mi SE 3.5 mph - N/A   Mist
1:27 AM 28.4 °F 23.3 °F 28.4 °F 100% 29.87 in 0.5 mi ESE 4.6 mph - N/A Fog Light Freezing Fog
1:31 AM 28.4 °F 23.3 °F 28.4 °F 100% 29.87 in 0.5 mi ESE 4.6 mph - N/A Fog Light Freezing Fog
1:43 AM 26.6 °F - 26.6 °F 100% 29.87 in 0.5 mi ESE 2.3 mph - N/A Fog Light Freezing Fog
1:58 AM 27.5 °F 23.6 °F 27.3 °F 99% 29.88 in 0.5 mi SE 3.5 mph - 0.00 in Fog Light Freezing Fog
2:12 AM 26.6 °F 22.6 °F 26.6 °F 100% 29.86 in 0.2 mi SSE 3.5 mph - N/A Fog Light Freezing Fog
2:34 AM 26.6 °F 22.6 °F 26.6 °F 100% 29.86 in 0.2 mi ESE 3.5 mph - N/A Fog Light Freezing Fog
2:58 AM 26.6 °F 22.6 °F 26.2 °F 99% 29.88 in 0.2 mi ESE 3.5 mph - N/A Fog Light Freezing Fog
3:15 AM 26.6 °F - 26.6 °F 100% 29.86 in 0.5 mi East 2.3 mph - N/A Fog Light Freezing Fog
3:17 AM 26.6 °F - 26.6 °F 100% 29.86 in 0.2 mi East 1.2 mph - N/A Fog Light Freezing Fog
3:58 AM 25.7 °F - 25.3 °F 99% 29.87 in 0.2 mi North 1.2 mph - N/A Fog Light Freezing Fog
4:42 AM 24.8 °F - 24.8 °F 100% 29.86 in 0.2 mi North 1.2 mph - N/A Fog Light Freezing Fog
4:48 AM 24.8 °F - 24.8 °F 100% 29.86 in 0.2 mi East 1.2 mph - N/A Fog Light Freezing Fog
4:58 AM 24.8 °F - 24.6 °F 99% 29.87 in 0.1 mi North 2.3 mph - N/A Fog Light Freezing Fog
4:59 AM 24.8 °F - 24.8 °F 100% 29.86 in 0.2 mi North 2.3 mph - N/A Fog Light Freezing Fog
5:12 AM 24.8 °F 20.5 °F 24.8 °F 100% 29.86 in 0.1 mi North 3.5 mph - N/A Fog Light Freezing Fog
5:36 AM 23.0 °F - 23.0 °F 100% 29.86 in 0.2 mi North 1.2 mph - N/A Fog Light Freezing Fog
5:58 AM 22.6 °F - 22.5 °F 99% 29.87 in 0.2 mi NNE 2.3 mph - 0.00 in Fog Light Freezing Fog
6:23 AM 21.2 °F - 21.2 °F 100% 29.87 in 0.5 mi ENE 2.3 mph - N/A Fog Light Freezing Fog
6:32 AM 21.2 °F - 19.4 °F 93% 29.87 in 0.5 mi ENE 2.3 mph - N/A Fog Light Freezing Fog
6:48 AM 21.2 °F - 19.4 °F 93% 29.87 in 0.2 mi NW 1.2 mph - N/A Fog Light Freezing Fog
6:50 AM 21.2 °F - 19.4 °F 93% 29.87 in 0.5 mi NW 1.2 mph - N/A Fog Light Freezing Fog
6:58 AM 20.7 °F - 20.1 °F 98% 29.89 in 0.5 mi Calm Calm - N/A Fog Light Freezing Fog
7:08 AM 19.4 °F - 19.4 °F 100% 29.88 in 0.2 mi West 1.2 mph - N/A Fog Light Freezing Fog
7:17 AM 19.4 °F - 19.4 °F 100% 29.88 in 0.2 mi Calm Calm - N/A Fog Light Freezing Fog
7:25 AM 19.4 °F - 19.4 °F 100% 29.88 in 0.1 mi Calm Calm - N/A Fog Light Freezing Fog
7:58 AM 19.6 °F - 18.9 °F 97% 29.91 in 0.1 mi Calm Calm - 0.00 in Fog Light Freezing Fog
8:01 AM 19.4 °F - 19.4 °F 100% 29.89 in - Calm Calm - N/A Fog Light Freezing Fog
8:16 AM 19.4 °F - 19.4 °F 100% 29.89 in 0.1 mi Calm Calm - N/A Fog Light Freezing Fog
8:58 AM 19.4 °F - 18.7 °F 97% 29.91 in 0.2 mi Calm Calm - N/A Fog Light Freezing Fog
9:20 AM 19.4 °F - 19.4 °F 100% 29.90 in - WNW 1.2 mph - N/A Fog Light Freezing Fog
9:58 AM 20.7 °F - 19.9 °F 97% 29.93 in 0.2 mi WNW 2.3 mph - N/A Fog Light Freezing Fog
10:00 AM 21.2 °F - 19.4 °F 93% 29.91 in - WNW 2.3 mph - N/A Fog Light Freezing Fog
10:13 AM 21.2 °F - 21.2 °F 100% 29.91 in 0.2 mi Calm Calm - N/A Fog Light Freezing Fog
10:20 AM 21.2 °F - 21.2 °F 100% 29.91 in 0.2 mi West 2.3 mph - N/A Fog Light Freezing Drizzle
10:24 AM 21.2 °F 16.4 °F 21.2 °F 100% 29.91 in 0.5 mi West 3.5 mph - N/A Fog Light Freezing Drizzle
10:38 AM 23.0 °F - 21.2 °F 93% 29.92 in 0.2 mi WNW 2.3 mph - N/A Fog Light Freezing Fog
10:39 AM 23.0 °F - 21.2 °F 93% 29.92 in 0.5 mi WNW 2.3 mph - N/A Fog Light Freezing Fog
10:41 AM 23.0 °F - 21.2 °F 93% 29.92 in 0.5 mi WNW 2.3 mph - N/A Fog Light Freezing Fog
10:43 AM 23.0 °F - 21.2 °F 93% 29.92 in 0.5 mi WNW 2.3 mph - N/A Fog Light Freezing Fog
10:45 AM 21.2 °F 16.4 °F 21.2 °F 100% 29.92 in 0.5 mi WNW 3.5 mph - N/A Fog Light Freezing Fog
10:46 AM 21.2 °F 16.4 °F 21.2 °F 100% 29.92 in 0.7 mi WNW 3.5 mph - N/A Fog Light Freezing Fog
10:50 AM 21.2 °F - 21.2 °F 100% 29.92 in 0.7 mi NW 2.3 mph - N/A Fog Light Freezing Fog
10:51 AM 21.2 °F - 21.2 °F 100% 29.92 in 0.5 mi NW 2.3 mph - N/A Fog Light Freezing Fog
10:53 AM 21.2 °F 16.4 °F 21.2 °F 100% 29.92 in 0.5 mi WNW 3.5 mph - N/A Fog Light Freezing Fog
10:54 AM 21.2 °F 16.4 °F 21.2 °F 100% 29.92 in 0.5 mi NW 3.5 mph - N/A Fog Light Freezing Fog
10:55 AM 21.2 °F - 21.2 °F 100% 29.92 in 0.5 mi NW 2.3 mph - N/A Fog Light Freezing Fog
10:56 AM 21.2 °F - 21.2 °F 100% 29.92 in 0.2 mi NW 2.3 mph - N/A Fog Light Freezing Fog
10:58 AM 22.1 °F 17.4 °F 21.6 °F 98% 29.94 in 0.2 mi WNW 3.5 mph - N/A Fog Light Freezing Fog
11:09 AM 21.2 °F - 21.2 °F 100% 29.92 in 0.2 mi WNW 2.3 mph - N/A Fog Light Freezing Fog
11:10 AM 21.2 °F - 21.2 °F 100% 29.92 in 0.2 mi WNW 2.3 mph - N/A Fog Light Freezing Fog
11:11 AM 21.2 °F - 21.2 °F 100% 29.92 in 0.2 mi WNW 2.3 mph - N/A Fog Light Freezing Fog
11:16 AM 21.2 °F - 21.2 °F 100% 29.92 in 0.2 mi West 2.3 mph - N/A Fog Light Freezing Fog
11:30 AM 21.2 °F - 21.2 °F 100% 29.92 in 0.2 mi Variable 2.3 mph - N/A Fog Light Freezing Fog
11:44 AM 23.0 °F - 21.2 °F 93% 29.92 in 0.2 mi WNW 1.2 mph - N/A Fog Light Freezing Fog
11:58 AM 22.6 °F - 22.3 °F 99% 29.94 in 0.2 mi North 1.2 mph - 0.00 in Fog Light Freezing Fog
12:00 PM 23.0 °F - 23.0 °F 100% 29.92 in 0.2 mi NE 2.3 mph - N/A Fog Light Freezing Fog
12:01 PM 23.0 °F - 23.0 °F 100% 29.92 in 0.2 mi NE 2.3 mph - N/A Fog Light Freezing Fog
12:02 PM 23.0 °F - 23.0 °F 100% 29.92 in 0.2 mi NE 2.3 mph - N/A Fog Light Freezing Fog
12:06 PM 23.0 °F - 23.0 °F 100% 29.92 in 0.2 mi North 2.3 mph - N/A Fog Light Freezing Fog
12:07 PM 23.0 °F - 21.2 °F 93% 29.92 in 0.2 mi North 2.3 mph - N/A Fog Light Freezing Fog
12:08 PM 23.0 °F - 21.2 °F 93% 29.92 in 0.2 mi North 2.3 mph - N/A Fog Light Freezing Fog
12:10 PM 23.0 °F - 23.0 °F 100% 29.92 in 0.2 mi NNW 1.2 mph - N/A Fog Light Freezing Fog
12:12 PM 23.0 °F - 21.2 °F 93% 29.92 in 0.2 mi North 2.3 mph - N/A Fog Light Freezing Fog
12:22 PM 23.0 °F - 21.2 °F 93% 29.92 in 0.2 mi WNW 2.3 mph - N/A Fog Light Freezing Fog
12:31 PM 23.0 °F - 21.2 °F 93% 29.93 in 0.2 mi NW 2.3 mph - N/A Fog Light Freezing Fog
12:49 PM 23.0 °F 18.4 °F 23.0 °F 100% 29.93 in 0.2 mi WNW 3.5 mph - N/A Fog Light Freezing Fog
12:51 PM 23.0 °F 18.4 °F 23.0 °F 100% 29.93 in 0.2 mi WNW 3.5 mph - N/A Fog Light Freezing Fog
12:52 PM 23.0 °F 18.4 °F 23.0 °F 100% 29.93 in 0.2 mi WNW 3.5 mph - N/A Fog Light Freezing Fog
12:58 PM 22.8 °F 18.2 °F 22.6 °F 99% 29.94 in 0.2 mi NNW 3.5 mph - N/A Fog Light Freezing Fog
1:00 PM 23.0 °F 18.4 °F 23.0 °F 100% 29.93 in 0.2 mi NNW 3.5 mph - N/A Fog Light Freezing Fog
1:15 PM 23.0 °F 18.4 °F 23.0 °F 100% 29.93 in 0.2 mi NW 3.5 mph - N/A Fog Light Freezing Fog
1:27 PM 23.0 °F - 23.0 °F 100% 29.93 in 0.2 mi NW 2.3 mph - N/A Fog Light Freezing Fog
1:33 PM 23.0 °F - 23.0 °F 100% 29.93 in 0.2 mi North 2.3 mph - N/A Fog Light Freezing Fog
1:39 PM 23.0 °F 17.0 °F 23.0 °F 100% 29.93 in 0.2 mi NNW 4.6 mph - N/A Fog Light Freezing Fog
1:45 PM 23.0 °F 18.4 °F 23.0 °F 100% 29.93 in 0.2 mi NW 3.5 mph - N/A Fog Light Freezing Fog
1:57 PM 23.0 °F 18.4 °F 23.0 °F 100% 29.93 in 0.2 mi WNW 3.5 mph - N/A Fog Light Freezing Fog
1:58 PM 23.7 °F - 23.5 °F 99% 29.94 in 0.2 mi NW 2.3 mph - N/A Fog Light Freezing Fog
2:04 PM 24.8 °F - 23.0 °F 93% 29.93 in 0.2 mi Variable 2.3 mph - N/A Fog Light Freezing Fog
2:34 PM 24.8 °F 19.1 °F 24.8 °F 100% 29.94 in 0.2 mi WNW 4.6 mph - N/A Fog Light Freezing Fog
2:51 PM 24.8 °F 19.1 °F 24.8 °F 100% 29.95 in 0.2 mi WNW 4.6 mph - N/A Fog Light Freezing Drizzle
2:58 PM 24.3 °F 16.3 °F 24.1 °F 99% 29.96 in 0.2 mi NW 6.9 mph - 0.00 in Fog Light Freezing Fog
3:00 PM 24.8 °F 17.9 °F 24.8 °F 100% 29.95 in - WNW 5.8 mph - N/A Fog Light Freezing Drizzle
3:58 PM 25.5 °F 19.9 °F 25.3 °F 99% 29.97 in 0.2 mi NNW 4.6 mph - 0.00 in Fog Light Freezing Fog
4:02 PM 24.8 °F 17.9 °F 24.8 °F 100% 29.96 in - NW 5.8 mph - N/A Fog Light Freezing Drizzle
4:32 PM 24.8 °F 20.5 °F 24.8 °F 100% 29.97 in 0.2 mi WNW 3.5 mph - N/A Fog Light Freezing Fog
4:34 PM 24.8 °F 20.5 °F 24.8 °F 100% 29.97 in 0.2 mi WNW 3.5 mph - N/A Fog Light Freezing Fog
4:36 PM 24.8 °F 19.1 °F 24.8 °F 100% 29.97 in 0.2 mi NW 4.6 mph - N/A Fog Light Freezing Fog
4:41 PM 24.8 °F 19.1 °F 24.8 °F 100% 29.97 in 0.2 mi NW 4.6 mph - N/A Fog Light Freezing Fog
4:43 PM 24.8 °F 20.5 °F 24.8 °F 100% 29.97 in 0.2 mi WNW 3.5 mph - N/A Fog Light Freezing Fog
4:45 PM 24.8 °F 20.5 °F 24.8 °F 100% 29.97 in 0.2 mi NW 3.5 mph - N/A Fog Light Freezing Fog
4:53 PM 24.8 °F 20.5 °F 24.8 °F 100% 29.97 in 0.2 mi North 3.5 mph - N/A Fog Light Freezing Fog
4:58 PM 25.2 °F 20.9 °F 24.8 °F 99% 29.99 in 0.2 mi North 3.5 mph - 0.00 in Fog Light Freezing Fog
4:59 PM 24.8 °F 19.1 °F 24.8 °F 100% 29.97 in 0.2 mi North 4.6 mph - N/A Fog Light Freezing Drizzle
5:55 PM 24.8 °F 20.5 °F 24.8 °F 100% 29.99 in 0.2 mi WNW 3.5 mph - N/A Fog Light Freezing Fog
6:38 PM 24.8 °F 17.9 °F 24.8 °F 100% 30.00 in 0.5 mi West 5.8 mph - N/A Fog Light Freezing Drizzle
6:55 PM 24.8 °F 17.9 °F 24.8 °F 100% 30.01 in 0.2 mi NNW 5.8 mph - N/A Fog Light Freezing Fog
7:55 PM 24.8 °F 20.5 °F 24.8 °F 100% 30.02 in 0.2 mi NW 3.5 mph - N/A Fog Light Freezing Fog
8:55 PM 24.8 °F 20.5 °F 24.8 °F 100% 30.04 in 0.3 mi WNW 3.5 mph - N/A Fog Light Freezing Fog
9:55 PM 23.0 °F 17.0 °F 23.0 °F 100% 30.04 in 0.5 mi WNW 4.6 mph - 0.00 in Fog Light Freezing Fog
10:55 PM 23.0 °F 18.4 °F 23.0 °F 100% 30.04 in 0.2 mi NW 3.5 mph - 0.00 in Fog Light Freezing Fog
11:55 PM 23.0 °F - 21.2 °F 93% 30.04 in 0.2 mi Calm Calm - 0.00 in Fog Light Freezing Fog